Mount Pleasant, MI

9:15 AM EDT on April 28, 2017 (GMT -0400)
Mount Pleasant Municipal

Weather History for KMOP - October, 2012

Change the Weather History Date:

Saturday, October 27, 2012

  Actual Average (KAMN) Record (KAMN)
Temperature  
Mean Temperature 40 °F -  
Max Temperature 50 °F 56 °F 77 °F (1989)
Min Temperature 31 °F 36 °F 20 °F (1976)
Degree Days  
Heating Degree Days 24    
Moisture  
Dew Point 30 °F    
Average Humidity 70    
Maximum Humidity 96    
Minimum Humidity 42    
Precipitation  
Precipitation 0.00 in - - ()
Sea Level Pressure  
Sea Level Pressure 30.24 in    
Wind  
Wind Speed 2 mph (NNW)    
Max Wind Speed 10 mph    
Max Gust Speed -    
Visibility 10 miles    
Events      
Averages and records for this station are not official NWS values.
T = Trace of Precipitation, MM = Missing Value Source: NWS Daily Summary

Daily Weather History Graph

Daily Weather History Graph

Search for Another Location

Airport or City:

Trip Planner

Search our weather history database for the weather conditions in past years. The results will help you decide how hot, cold, wet, or windy it might be!

Date:

Astronomy

Oct. 27, 2012 Rise Set
Actual Time 8:08 AM EDT 6:36 PM EDT
Civil Twilight 7:39 AM EDT 7:05 PM EDT
Nautical Twilight 7:05 AM EDT 7:39 PM EDT
Astronomical Twilight 6:32 AM EDT 8:12 PM EDT
Moon 5:23 PM EDT (10/27) 6:00 AM EDT (10/27)
Length of Visible Light 11h 26m
Length of Day
10h 27m
Waxing Gibbous, 96% of the Moon is Illuminated
Oct 27
Waxing Gibbous
Oct 29
Full
Nov 6
Last Quarter
Nov 13
New
Nov 20
First Quarter

Hourly Weather History & Observations

Time (EDT) Temp. Windchill Dew Point Humidity Pressure Visibility Wind Dir Wind Speed Gust Speed Precip Events Conditions
12:35 AM 37.6 °F - 30.2 °F 75% 30.28 in 10.0 mi Calm Calm - N/A   Clear
12:55 AM 37.2 °F - 30.4 °F 76% 30.27 in 10.0 mi Calm Calm - N/A   Clear
1:15 AM 36.9 °F - 30.2 °F 77% 30.26 in 10.0 mi Calm Calm - N/A   Clear
1:35 AM 36.3 °F - 30.2 °F 78% 30.26 in 10.0 mi Calm Calm - N/A   Clear
1:55 AM 35.4 °F - 29.7 °F 80% 30.25 in 10.0 mi Calm Calm - N/A   Clear
2:15 AM 35.6 °F - 30.2 °F 81% 30.25 in 10.0 mi Calm Calm - N/A   Clear
2:35 AM 34.0 °F - 30.9 °F 89% 30.25 in 10.0 mi Calm Calm - N/A   Clear
2:55 AM 32.5 °F - 29.7 °F 89% 30.25 in 10.0 mi Calm Calm - N/A   Clear
3:15 AM 32.0 °F - 29.7 °F 91% 30.25 in 10.0 mi Calm Calm - N/A   Clear
3:35 AM 32.0 °F - 29.5 °F 90% 30.25 in 10.0 mi Calm Calm - N/A   Clear
3:55 AM 31.1 °F - 29.1 °F 92% 30.24 in 10.0 mi Calm Calm - N/A   Clear
4:15 AM 32.0 °F - 30.0 °F 92% 30.24 in 10.0 mi Calm Calm - N/A   Clear
4:34 AM 31.5 °F - 29.3 °F 92% 30.24 in 10.0 mi Calm Calm - N/A   Clear
4:55 AM 31.6 °F - 29.7 °F 92% 30.24 in 10.0 mi Calm Calm - N/A   Clear
5:15 AM 32.0 °F - 30.2 °F 93% 30.24 in 10.0 mi Calm Calm - N/A   Clear
5:35 AM 32.0 °F - 30.2 °F 93% 30.24 in 10.0 mi Calm Calm - N/A   Clear
5:55 AM 32.0 °F - 30.7 °F 95% 30.24 in 10.0 mi Calm Calm - N/A   Clear
6:15 AM 32.0 °F - 30.6 °F 94% 30.24 in 10.0 mi Calm Calm - N/A   Clear
6:35 AM 32.4 °F - 31.3 °F 96% 30.24 in 10.0 mi Calm Calm - N/A   Clear
6:55 AM 33.1 °F - 31.1 °F 92% 30.24 in 10.0 mi Calm Calm - N/A   Clear
7:15 AM 33.3 °F - 31.1 °F 92% 30.25 in 10.0 mi Calm Calm - N/A   Clear
7:55 AM 33.8 °F 30.8 °F 30.7 °F 89% 30.25 in 10.0 mi NW 3.5 mph - N/A   Clear
8:15 AM 33.8 °F 30.8 °F 30.4 °F 87% 30.25 in 10.0 mi NW 3.5 mph - N/A   Clear
8:35 AM 34.0 °F - 30.7 °F 88% 30.26 in 10.0 mi Calm Calm - N/A   Clear
8:55 AM 35.2 °F 30.3 °F 31.1 °F 85% 30.26 in 10.0 mi NW 5.8 mph - N/A   Clear
9:15 AM 36.9 °F 33.1 °F 32.0 °F 83% 30.26 in 10.0 mi NNW 4.6 mph - N/A   Clear
9:35 AM 37.8 °F 35.3 °F 32.0 °F 80% 30.26 in 10.0 mi NNW 3.5 mph - N/A   Clear
10:15 AM 39.2 °F 35.9 °F 32.5 °F 77% 30.26 in 10.0 mi North 4.6 mph - N/A   Mostly Cloudy
10:35 AM 40.3 °F 35.5 °F 33.6 °F 77% 30.26 in 10.0 mi North 6.9 mph - N/A   Mostly Cloudy
11:15 AM 43.9 °F 40.5 °F 34.0 °F 68% 30.25 in 10.0 mi North 5.8 mph - N/A   Mostly Cloudy
11:35 AM 45.0 °F 39.7 °F 33.3 °F 64% 30.25 in 10.0 mi North 10.4 mph - N/A   Mostly Cloudy
11:55 AM 46.6 °F - 33.3 °F 60% 30.25 in 10.0 mi North 5.8 mph - N/A   Scattered Clouds
12:15 PM 45.9 °F 44.6 °F 32.9 °F 61% 30.25 in 10.0 mi North 3.5 mph - N/A   Scattered Clouds
12:35 PM 46.0 °F 43.1 °F 32.9 °F 60% 30.25 in 10.0 mi North 5.8 mph - N/A   Scattered Clouds
12:55 PM 49.1 °F - 32.9 °F 54% 30.24 in 10.0 mi NNE 4.6 mph - N/A   Scattered Clouds
1:15 PM 50.2 °F - 32.5 °F 51% 30.23 in 10.0 mi NNW 9.2 mph - N/A   Scattered Clouds
1:35 PM 47.8 °F - 31.6 °F 53% 30.22 in 10.0 mi NE 3.5 mph - N/A   Scattered Clouds
1:55 PM 47.7 °F - 30.9 °F 52% 30.21 in 10.0 mi North 5.8 mph - N/A   Scattered Clouds
2:15 PM 50.2 °F - 31.3 °F 48% 30.21 in 10.0 mi NE 4.6 mph - N/A   Scattered Clouds
2:35 PM 48.9 °F - 30.2 °F 48% 30.21 in 10.0 mi North 6.9 mph - N/A   Scattered Clouds
2:55 PM 50.2 °F - 30.4 °F 47% 30.20 in 10.0 mi NNW 3.5 mph - N/A   Scattered Clouds
3:15 PM 48.7 °F - 29.5 °F 47% 30.19 in 10.0 mi Calm Calm - N/A   Scattered Clouds
3:35 PM 48.4 °F - 28.6 °F 46% 30.19 in 10.0 mi North 5.8 mph - N/A   Clear
3:55 PM 50.2 °F - 27.9 °F 42% 30.19 in 10.0 mi West 3.5 mph - N/A   Clear
4:15 PM 50.0 °F - 27.9 °F 42% 30.19 in 10.0 mi NNW 8.1 mph - N/A   Clear
4:35 PM 48.0 °F - 29.3 °F 48% 30.19 in 10.0 mi NNW 3.5 mph - N/A   Clear
4:55 PM 49.8 °F - 28.6 °F 44% 30.19 in 10.0 mi North 4.6 mph - N/A   Clear
5:15 PM 48.6 °F - 28.4 °F 46% 30.19 in 10.0 mi North 3.5 mph - N/A   Scattered Clouds
5:35 PM 49.1 °F - 27.9 °F 44% 30.20 in 10.0 mi North 6.9 mph - N/A   Scattered Clouds
5:55 PM 48.4 °F - 27.1 °F 44% 30.20 in 10.0 mi North 4.6 mph - N/A   Scattered Clouds
6:15 PM 47.3 °F - 28.0 °F 47% 30.20 in 10.0 mi Calm Calm - N/A   Scattered Clouds
6:35 PM 46.0 °F 43.9 °F 28.2 °F 50% 30.21 in 10.0 mi NNW 4.6 mph - N/A   Scattered Clouds
6:55 PM 44.6 °F 42.2 °F 28.4 °F 53% 30.21 in 10.0 mi NNW 4.6 mph - N/A   Scattered Clouds
7:15 PM 43.9 °F 40.5 °F 28.2 °F 54% 30.22 in 10.0 mi NNW 5.8 mph - N/A   Clear
7:35 PM 42.8 °F - 28.2 °F 56% 30.23 in 10.0 mi Calm Calm - N/A   Clear
7:55 PM 41.9 °F 39.0 °F 28.2 °F 58% 30.23 in 10.0 mi NNW 4.6 mph - N/A   Clear
8:15 PM 41.2 °F 38.2 °F 28.0 °F 60% 30.23 in 10.0 mi North 4.6 mph - N/A   Clear
8:35 PM 40.3 °F 37.1 °F 27.9 °F 61% 30.23 in 10.0 mi NNW 4.6 mph - N/A   Clear
8:55 PM 39.9 °F 35.8 °F 29.7 °F 67% 30.24 in 10.0 mi NNW 5.8 mph - N/A   Clear
9:15 PM 39.2 °F 35.9 °F 30.2 °F 70% 30.24 in 10.0 mi North 4.6 mph - N/A   Clear
9:35 PM 38.3 °F 35.9 °F 30.2 °F 73% 30.24 in 10.0 mi North 3.5 mph - N/A   Clear
9:55 PM 37.8 °F - 30.4 °F 75% 30.25 in 10.0 mi Calm Calm - N/A   Clear
10:15 PM 37.4 °F 34.9 °F 30.4 °F 76% 30.25 in 10.0 mi North 3.5 mph - N/A   Clear
10:35 PM 36.7 °F 34.1 °F 30.2 °F 77% 30.26 in 10.0 mi NNW 3.5 mph - N/A   Clear
10:55 PM 36.1 °F 33.5 °F 30.2 °F 79% 30.26 in 10.0 mi NNW 3.5 mph - N/A   Clear
11:15 PM 36.0 °F 33.3 °F 30.0 °F 79% 30.26 in 10.0 mi NNW 3.5 mph - N/A   Clear
11:35 PM 35.2 °F 32.4 °F 29.8 °F 81% 30.26 in 10.0 mi NNW 3.5 mph - N/A   Clear
11:55 PM 34.9 °F 32.0 °F 29.8 °F 82% 30.26 in 10.0 mi NNW 3.5 mph - N/A   Clear